Regional Weather Roundup
Issued by NWS

Home | Current Version | Previous Version | Graphics & Text | Print | Product List | Glossary On
Versions: 1 2 3 4 5 6 7 8 9 10 11 12 13 14 15 16 17 18 19 20 21 22 23 24 25 26 27
000
ASUS45 KBOU 271507
RWRCO

WEATHER ROUNDUP FOR COLORADO
NATIONAL WEATHER SERVICE DENVER/BOULDER CO
900 AM MDT MON MAR 27 2017

NOTE: "FAIR" INDICATES FEW OR NO CLOUDS BELOW 12000 FEET WITH NO
SIGNIFICANT WEATHER AND/OR OBSTRUCTIONS TO VISIBILITY.

COZ001>005-013-030-031-271600-
...NORTHWEST COLORADO...

CITY           SKY/WX    TMP DP  RH WIND       PRES   REMARKS
CRAIG          CLOUDY    39  29  67 N6        29.95F
HAYDEN         PTSUNNY   36  27  69 E7        29.96S
MEEKER         CLOUDY    38  29  70 W3        29.95R
MOUNT WERNER   NOT AVBL
STEAMBOAT SPGS CLOUDY    35  28  78 CALM      29.96F
WALDEN         NOT AVBL
$$

COZ006>008-011-271600-
...WEST CENTRAL VALLEYS...

CITY           SKY/WX    TMP DP  RH WIND       PRES   REMARKS
GRAND JUNCTION PTSUNNY   48  29  47 SE15      29.91R
MONTROSE       FAIR      45  28  51 SE12      29.96F
EAGLE          PTSUNNY   36  25  64 CALM      30.00F
RIFLE          FAIR      41  31  67 CALM      29.94S
DELTA          FAIR      47  31  55 E7        29.95S
NUCLA          PTSUNNY   43  30  61 SE5       29.98S
$$

COZ017>023-064>068-271600-
...SOUTHWEST COLORADO...

CITY           SKY/WX    TMP DP  RH WIND       PRES   REMARKS
DURANGO        CLOUDY    37  27  67 CALM      30.01F
CORTEZ         CLOUDY    39  31  72 CALM      29.98S
PAGOSA SPRINGS PTSUNNY   37  29  74 CALM      30.05S
TELLURIDE      NOT AVBL
WOLF CREEK PAS FOG       23  23 100 S7        30.14S VSB 1/4 WCI  15
$$

COZ009-010-012-014-032>034-037-058>063-271600-
...CENTRAL COLORADO...

CITY           SKY/WX    TMP DP  RH WIND       PRES   REMARKS
ASPEN          FAIR      38  21  50 CALM      29.95F
BUENA VISTA    FAIR      36  20  52 CALM      29.99F
COPPER MTN     FAIR      30  16  55 S3        30.05S
BERTHOUD PASS  FAIR      18   5  57 W9        30.05R WCI   6
COTTONWOOD PAS FAIR      37  19  48 SE8       30.01F
GUNNISON       FAIR      30  24  78 CALM      30.04
KREMMLING      PTSUNNY   37  32  81 CALM      30.00S
LEADVILLE      NOT AVBL
MONARCH PASS   FAIR      21  19  93 W23       30.16R WCI   5
SALIDA         FAIR      36  26  68 CALM      30.07F
SUNLIGHT       CLOUDY    28  23  80 SW6       30.06S WCI  22
WILKERSON PASS FAIR      28  12  50 CALM      30.06F
$$

COZ069>075-271600-
...SAN LUIS VALLEY/SANGRE DE CRISTO MOUNTAINS...

CITY           SKY/WX    TMP DP  RH WIND       PRES   REMARKS
ALAMOSA        FAIR      38  30  73 CALM      30.02S
LA VETA PASS   NOT AVBL
SAGUACHE       FAIR      37  23  56 NW13      30.03S
$$

COZ035-036-038>040-271600-
...NORTHERN COLORADO FRONT RANGE...

CITY           SKY/WX    TMP DP  RH WIND       PRES   REMARKS
DENVER INTL AP FAIR      42  37  82 S3        29.93S
DMNS CITY PARK   N/A     45  33  63 SE7G13    29.93S
AURORA         MOSUNNY   45  36  70 SW9       29.93F
FRONT RANGE AP MOSUNNY   45  39  81 CALM      29.94F
ERIE MUNI ARPT FAIR      37  37 100 CALM      29.94S FOG
BOULDER MUN AP FAIR      41  39  93 CALM      29.93F
CENTENNIAL     FAIR      43  35  73 SE6       29.93F
BROOMFIELD     MOSUNNY   41  39  93 N6        29.94S
FORT COLLINS   FAIR      38  37  97 N6        29.95S
LONGMONT       FAIR      42  40  93 CALM      29.96S
$$

COZ041-046-047-076>085-087-088-271600-
...PIKES PEAK/PALMER DIVIDE AND SOUTHERN FOOTHILLS...

CITY           SKY/WX    TMP DP  RH WIND       PRES   REMARKS
COLO. SPRINGS  FAIR      43  37  79 E3        29.98F
A. F. ACADEMY  MOSUNNY   40  37  88 CALM      29.97F
SCHRIEVER AFB  FAIR      43  39  83 S12       29.98F
ELLICOTT         N/A    N/A N/A N/A SW6       29.97S
FALCON         FAIR      42  38  86 S9        29.99F
FORT CARSON    FAIR      42  38  84 CALM      29.97S
LIMON          FAIR      42  38  85 CALM      29.96F
MONUMENT HILL  FAIR      41  34  75 S9        29.97F
TRINIDAD       FAIR      44  36  73 W12       29.98S
$$

COZ042>045-048>051-090-091-271600-
...NORTHEAST COLORADO...

CITY           SKY/WX    TMP DP  RH WIND       PRES   REMARKS
GREELEY ARPT   FAIR      38  31  76 VRB3      29.95F
AKRON          FAIR      47  38  71 SW6       29.94S
BURLINGTON     FAIR      45  41  86 NW6       29.96S
WRAY           NOT AVBL
STERLING       FAIR      37  34  87 S3        29.94F
HOLYOKE        FAIR      46  37  71 W6        29.94S
FORT MORGAN    FAIR      42  37  83 SW5       29.95F
$$

COZ086-089-092>099-271600-
...SOUTHEAST COLORADO...

CITY           SKY/WX    TMP DP  RH WIND       PRES   REMARKS
PUEBLO         FAIR      41  36  82 CALM      29.97S
LA JUNTA       FAIR      45  38  76 W5        29.97S
LAMAR          FAIR      40  35  83 VRB5      29.97R
SPRINGFIELD      N/A     51  38  60 CALM      29.97S
$$




USA.gov is the U.S. government's official web portal to all federal, state and local government web resources and services.